Waarnemingen

Advertentie
Mijn weer
Westdorpe aws, Nederland (6319): temperatuur & dauwpunt: 19.02.2018 20:00:00 - 25.02.2018 20:00:00 (CET)Westdorpe aws, Nederland (6319): temperatuur 5cm: 19.02.2018 20:00:00 - 25.02.2018 20:00:00 (CET)Westdorpe aws, Nederland (6319): windsnelheid & windstoten: 19.02.2018 20:00:00 - 25.02.2018 20:00:00 (CET)Westdorpe aws, Nederland (6319): windrichting: 19.02.2018 20:00:00 - 25.02.2018 20:00:00 (CET)Westdorpe aws, Nederland (6319): luchtdruk: 19.02.2018 20:00:00 - 25.02.2018 20:00:00 (CET)Westdorpe aws, Nederland (6319): zicht: 19.02.2018 20:00:00 - 25.02.2018 20:00:00 (CET)Westdorpe aws, Nederland (6319): neerslag: 19.02.2018 20:00:00 - 25.02.2018 20:00:00 (CET)
Datum & Tijd tt [°C] td [°C] tt 5cm [°C] ff [km/u] ff [kn] fx [km/u] fx [kn] dd ppp [hPa] vv [km] rr [mm]
25.02.2018 20:00:00 -1,7 -10,1 -2,4 25 14 36 19 NO 1028,6 50 0,0
25.02.2018 19:00:00 -1,2 -10,2 -2,1 22 12 32 18 NO 1028,5 50 0,0
25.02.2018 18:00:00 -0,2 -11,9 -0,9 22 12 36 19 NO 1028,2 45 0,0
25.02.2018 17:00:00 1,0 -13,4 1,0 25 14 36 19 ONO 1027,8 42 0,0
25.02.2018 16:00:00 1,4 -14,0 1,9 25 14 40 21 ONO 1027,9 45 0,0
25.02.2018 15:00:00 1,6 -12,0 2,5 25 14 36 19 ONO 1028,1 47 0,0
25.02.2018 14:00:00 1,6 -12,4 3,1 25 14 36 19 ONO 1028,3 41 0,0
25.02.2018 13:00:00 0,9 -12,1 2,8 25 14 32 18 ONO 1028,6 39 0,0
25.02.2018 12:00:00 0,3 -12,1 2,2 22 12 40 21 O 1029,0 41 0,0
25.02.2018 11:00:00 -0,8 -11,9 0,4 25 14 40 21 ONO 1029,2 44 0,0
25.02.2018 10:00:00 -1,7 -11,0 -1,0 29 16 40 21 O 1028,9 40 0,0
25.02.2018 09:00:00 -2,7 -10,3 -2,8 22 12 36 19 ONO 1028,3 40 0,0
25.02.2018 08:00:00 -3,8 -9,7 -4,7 18 10 29 16 ONO 1028,3 49 0,0
25.02.2018 07:00:00 -3,7 -9,6 -4,5 18 10 29 16 ONO 1027,7 50 0,0
25.02.2018 06:00:00 -3,1 -9,6 -4,2 22 12 29 16 ONO 1027,4 49 0,0
25.02.2018 05:00:00 -2,9 -9,3 -3,9 18 10 29 16 ONO 1027,0 50 0,0
25.02.2018 04:00:00 -2,5 -9,0 -3,6 18 10 25 14 ONO 1026,6 50 0,0
25.02.2018 03:00:00 -2,4 -8,4 -3,2 18 10 25 14 ONO 1026,3 50 0,0
25.02.2018 02:00:00 -2,0 -8,1 -2,8 18 10 32 18 ONO 1026,3 50 0,0
25.02.2018 01:00:00 -1,3 -8,0 -2,2 18 10 32 18 ONO 1026,1 50 0,0
25.02.2018 00:00:00 -1,0 -7,4 -1,8 22 12 36 19 ONO 1026,1 50 0,0
24.02.2018 23:00:00 -0,6 -6,9 -1,3 25 14 36 19 ONO 1025,6 48 0,0
24.02.2018 22:00:00 0,0 -7,1 -0,7 25 14 36 19 ONO 1025,2 50 0,0
24.02.2018 21:00:00 0,3 -6,5 -0,7 22 12 47 25 ONO 1024,9 49 0,0
24.02.2018 20:00:00 0,7 -5,3 0,0 29 16 43 23 ONO 1024,3 47 0,0
24.02.2018 19:00:00 1,3 -5,1 0,3 25 14 43 23 ONO 1024,0 43 0,0
24.02.2018 18:00:00 1,7 -5,9 1,0 29 16 47 25 ONO 1023,4 47 0,0
24.02.2018 17:00:00 3,4 -5,7 3,3 29 16 47 25 ONO 1022,8 44 0,0
24.02.2018 16:00:00 4,7 -6,7 5,0 29 16 47 25 ONO 1022,5 46 0,0
24.02.2018 15:00:00 5,1 -7,8 5,7 29 16 47 25 ONO 1022,2 37 0,0
24.02.2018 14:00:00 4,9 -8,0 5,9 25 14 47 25 ONO 1022,3 37 0,0
24.02.2018 13:00:00 4,1 -8,4 5,2 25 14 47 25 O 1022,6 39 0,0
24.02.2018 12:00:00 2,9 -10,0 3,7 32 18 50 27 O 1023,0 33 0,0
24.02.2018 11:00:00 1,4 -10,2 2,3 25 14 40 21 O 1023,1 34 0,0
24.02.2018 10:00:00 -0,2 -10,2 0,3 22 12 36 19 O 1023,1 27 0,0
24.02.2018 09:00:00 -2,2 -9,1 -2,5 18 10 25 14 ONO 1022,8 24 0,0
24.02.2018 08:00:00 -3,6 -9,3 -4,8 14 8 22 12 ONO 1022,4 23 0,0
24.02.2018 07:00:00 -3,7 -9,0 -4,7 14 8 25 14 ONO 1021,8 26 0,0
24.02.2018 06:00:00 -3,2 -9,1 -4,5 14 8 25 14 ONO 1021,6 33 0,0
24.02.2018 05:00:00 -3,2 -8,2 -4,2 14 8 25 14 ONO 1021,3 28 0,0
24.02.2018 04:00:00 -3,0 -7,5 -4,0 18 10 22 12 ONO 1021,2 35 0,0
24.02.2018 03:00:00 -2,7 -7,1 -3,7 14 8 22 12 ONO 1021,1 29 0,0
24.02.2018 02:00:00 -2,3 -6,8 -3,1 18 10 25 14 ONO 1021,0 29 0,0
24.02.2018 01:00:00 -1,7 -6,3 -2,7 18 10 29 16 ONO 1020,8 32 0,0
24.02.2018 00:00:00 -1,3 -6,0 -2,2 22 12 29 16 ONO 1020,6 32 0,0
23.02.2018 23:00:00 -0,8 -6,0 -1,9 18 10 29 16 ONO 1020,6 41 0,0
23.02.2018 22:00:00 -0,3 -6,0 -1,2 22 12 29 16 ONO 1020,5 44 0,0
23.02.2018 21:00:00 0,0 -5,9 -1,0 18 10 32 18 ONO 1020,5 38 0,0
23.02.2018 20:00:00 0,6 -5,7 -0,5 22 12 29 16 ONO 1020,3 48 0,0
23.02.2018 19:00:00 0,8 -5,5 -0,2 18 10 29 16 ONO 1020,1 41 0,0
23.02.2018 18:00:00 1,6 -5,7 0,7 22 12 40 21 ONO 1020,1 29 0,0
23.02.2018 17:00:00 2,5 -5,4 2,3 29 16 40 21 ONO 1019,7 26 0,0
23.02.2018 16:00:00 3,0 -4,1 3,3 25 14 36 19 NO 1019,9 28 0,0
23.02.2018 15:00:00 2,9 -4,7 3,8 29 16 40 21 NO 1020,3 31 0,0
23.02.2018 14:00:00 2,8 -5,4 4,1 29 16 43 23 ONO 1020,5 30 0,0
23.02.2018 13:00:00 2,0 -5,6 3,4 29 16 43 23 ONO 1021,1 24 0,0
23.02.2018 12:00:00 1,5 -5,4 2,6 29 16 47 25 ONO 1021,7 24 0,0
23.02.2018 11:00:00 0,7 -4,1 1,6 29 16 40 21 ONO 1022,0 14 0,0
23.02.2018 10:00:00 0,0 -3,5 0,6 22 12 29 16 ONO 1022,6 11 0,0
23.02.2018 09:00:00 -1,1 -3,9 -1,4 18 10 25 14 ONO 1022,7 10 0,0
23.02.2018 08:00:00 -2,0 -4,3 -2,8 18 10 25 14 ONO 1022,5 10 0,0
23.02.2018 07:00:00 -2,2 -4,3 -3,2 14 8 22 12 NO 1022,4 10 0,0
23.02.2018 06:00:00 -2,1 -4,2 -2,9 14 8 25 14 NO 1022,2 10 0,0
23.02.2018 05:00:00 -1,6 -4,0 -2,3 18 10 25 14 ONO 1022,1 11 0,0
23.02.2018 04:00:00 -1,8 -4,0 -2,7 18 10 22 12 NO 1022,2 10 0,0
23.02.2018 03:00:00 -1,5 -3,9 -2,2 18 10 25 14 NO 1022,7 12 0,0
23.02.2018 02:00:00 -1,2 -4,3 -2,2 14 8 29 16 ONO 1022,8 17 0,0
23.02.2018 01:00:00 -0,4 -4,6 -1,6 18 10 29 16 NO 1022,9 22 0,0
23.02.2018 00:00:00 -0,5 -4,2 -1,4 18 10 25 14 ONO 1023,0 21 0,0
22.02.2018 23:00:00 0,1 -3,9 -0,7 18 10 32 18 ONO 1023,0 22 0,0
22.02.2018 22:00:00 0,8 -3,6 -0,1 25 14 36 19 ONO 1022,7 27 0,0
22.02.2018 21:00:00 0,8 -3,2 -0,1 22 12 29 16 ONO 1022,7 29 0,0
22.02.2018 20:00:00 1,1 -3,5 0,1 18 10 29 16 NO 1022,5 43 0,0
22.02.2018 19:00:00 1,8 -3,3 0,9 25 14 32 18 NO 1022,3 38 0,0
22.02.2018 18:00:00 2,8 -3,6 2,0 22 12 40 21 NO 1022,2 48 0,0
22.02.2018 17:00:00 4,0 -2,9 3,8 29 16 43 23 NO 1022,0 41 0,0
22.02.2018 16:00:00 4,7 -3,3 4,9 29 16 40 21 NO 1022,0 39 0,0
22.02.2018 15:00:00 4,7 -4,6 5,4 29 16 43 23 ONO 1022,5 38 0,0
22.02.2018 14:00:00 4,7 -2,4 5,6 25 14 36 19 ONO 1023,3 37 0,0
22.02.2018 13:00:00 3,9 -2,8 5,0 22 12 36 19 ONO 1023,8 33 0,0
22.02.2018 12:00:00 2,7 -3,8 4,0 22 12 32 18 ONO 1024,1 22 0,0
22.02.2018 11:00:00 1,5 -3,1 2,4 18 10 25 14 ONO 1024,3 18 0,0
22.02.2018 10:00:00 0,0 -3,6 0,3 18 10 32 18 ONO 1024,4 14 0,0
22.02.2018 09:00:00 -1,2 -4,2 -1,5 18 10 25 14 ONO 1024,3 12 0,0
22.02.2018 08:00:00 -1,8 -4,7 -2,7 18 10 25 14 ONO 1024,1 13 0,0
22.02.2018 07:00:00 -2,1 -4,5 -2,8 18 10 25 14 NO 1023,7 10 0,0
22.02.2018 06:00:00 -2,1 -4,3 -2,8 14 8 18 10 NO 1023,7 9 0,0
22.02.2018 05:00:00 -1,8 -4,1 -2,5 14 8 22 12 NO 1023,5 9 0,0
22.02.2018 04:00:00 -1,4 -4,0 -2,2 14 8 22 12 NO 1023,5 10 0,0
22.02.2018 03:00:00 -1,3 -3,8 -2,2 11 6 18 10 NO 1024,0 9 0,0
22.02.2018 02:00:00 -1,1 -3,4 -1,8 14 8 22 12 NO 1024,3 9 0,0
22.02.2018 01:00:00 -0,7 -3,0 -1,4 14 8 22 12 NO 1024,6 8 0,0
22.02.2018 00:00:00 -0,3 -2,5 -1,3 14 8 18 10 NO 1024,8 8 0,0
21.02.2018 23:00:00 -0,2 -2,0 -0,9 11 6 18 10 NO 1025,0 7 0,0
21.02.2018 22:00:00 0,4 -1,8 -0,2 14 8 25 14 NNO 1025,1 7 0,0
21.02.2018 21:00:00 0,7 -1,8 0,0 18 10 25 14 NNO 1025,0 8 0,0
21.02.2018 20:00:00 0,1 -1,7 -2,5 11 6 14 8 NNO 1024,9 6 0,0
21.02.2018 19:00:00 0,7 -1,3 -0,7 11 6 14 8 NNO 1024,9 6 0,0
21.02.2018 18:00:00 2,6 -1,1 1,7 14 8 25 14 NNO 1024,6 9 0,0
21.02.2018 17:00:00 4,0 -1,6 3,8 18 10 29 16 NNO 1024,4 10 0,0
21.02.2018 16:00:00 4,5 -0,9 4,8 18 10 29 16 NO 1024,6 10 0,0
21.02.2018 15:00:00 4,5 -0,5 5,2 18 10 29 16 NNO 1025,2 10 0,0
21.02.2018 14:00:00 4,1 -1,1 5,3 22 12 29 16 NNO 1025,9 9 0,0
21.02.2018 13:00:00 3,5 -1,8 5,2 18 10 25 14 NNO 1026,4 8 0,0
21.02.2018 12:00:00 2,8 -1,2 4,2 14 8 18 10 NO 1026,6 8 0,0
21.02.2018 11:00:00 1,6 -1,6 2,6 14 8 18 10 NO 1026,6 7 0,0
21.02.2018 10:00:00 0,5 -1,6 0,9 14 8 18 10 NO 1026,5 5 0,0
21.02.2018 09:00:00 -0,3 -1,7 -0,8 11 6 14 8 NO 1026,1 4,0 0,0
21.02.2018 08:00:00 -1,0 -2,2 -1,6 11 6 18 10 NO 1025,8 3,6 0,0
21.02.2018 07:00:00 -0,9 -2,1 -1,9 11 6 18 10 NNO 1025,9 4,1 0,0
21.02.2018 06:00:00 -0,6 -1,9 -1,5 11 6 18 10 NNO 1025,5 4,5 0,0
21.02.2018 05:00:00 -0,4 -1,5 -1,4 14 8 18 10 N 1025,2 3,8 0,0
21.02.2018 04:00:00 -0,1 -1,5 -1,2 14 8 18 10 NNO 1024,8 5 0,0
21.02.2018 03:00:00 -0,5 -1,4 -1,8 11 6 14 8 NNO 1024,8 3,6 0,0
21.02.2018 02:00:00 0,3 -1,3 -0,9 11 6 14 8 NO 1024,2 6 0,0
21.02.2018 01:00:00 0,4 -1,3 -0,5 14 8 25 14 NO 1024,1 6 0,0
21.02.2018 00:00:00 1,0 -0,5 0,2 14 8 18 10 NO 1023,8 5 0,0
20.02.2018 23:00:00 1,3 -0,1 0,6 14 8 22 12 NNO 1023,2 4,9 0,0
20.02.2018 22:00:00 2,3 0,4 1,7 14 8 22 12 NNO 1022,5 6 0,0
20.02.2018 21:00:00 3,0 0,1 2,6 14 8 18 10 NNO 1021,8 11 0,0
20.02.2018 20:00:00 3,2 0,5 2,9 11 6 18 10 NNO 1021,0 11 0,0
20.02.2018 19:00:00 3,4 0,5 3,0 14 8 18 10 NO 1020,3 10 0,0
20.02.2018 18:00:00 3,9 0,9 3,6 14 8 18 10 NNO 1019,7 8 0,0
20.02.2018 17:00:00 4,7 0,3 4,5 14 8 18 10 NNO 1019,2 9 0,0
20.02.2018 16:00:00 5,1 1,3 5,4 14 8 14 8 N 1018,8 8 0,0
20.02.2018 15:00:00 5,6 0,5 6,4 4 2 7 4 N 1018,8 10 0,0
20.02.2018 14:00:00 5,7 0,0 6,6 4 2 7 4 NNO 1019,0 10 0,0
20.02.2018 13:00:00 5,2 -0,2 6,5 4 2 11 6 O 1019,1 10 0,0
20.02.2018 12:00:00 4,9 0,3 6,6 4 2 11 6 O 1019,1 9 0,0
20.02.2018 11:00:00 3,6 0,3 4,2 7 4 11 6 O 1019,0 9 0,0
20.02.2018 10:00:00 2,9 1,5 3,1 4 2 7 4 NNO 1019,3 6 0,0
20.02.2018 09:00:00 2,3 1,8 2,2 4 2 7 4 ONO 1018,5 3,7 0,0
20.02.2018 08:00:00 1,7 1,3 0,5 4 2 7 4 W 1018,8 3,6 0,0
20.02.2018 07:00:00 2,3 2,1 1,7 4 2 7 4 O 1018,1 3,4 0,0
20.02.2018 06:00:00 2,7 2,4 2,5 7 4 7 4 O 1017,9 3,3 0,0
20.02.2018 05:00:00 2,7 2,5 2,7 4 2 7 4 O 1017,8 3,2 0,0
20.02.2018 04:00:00 2,6 2,5 2,3 4 2 11 6 O 1017,6 2,9 0,0
20.02.2018 03:00:00 2,5 2,4 2,3 4 2 4 2 NO 1017,7 2,1 0,0
20.02.2018 02:00:00 2,4 2,3 1,7 4 2 11 6 O 1017,5 2,7 0,0
20.02.2018 01:00:00 2,9 2,5 2,7 7 4 11 6 O 1017,4 3,0 0,0
20.02.2018 00:00:00 3,0 2,7 3,0 4 2 7 4 ZZO 1017,3 2,9 0,1
19.02.2018 23:00:00 3,1 2,6 3,0 4 2 14 8 ZO 1017,1 3,0 0,0
19.02.2018 22:00:00 3,1 2,6 3,1 7 4 11 6 ZO 1017,1 4,3 0,0
19.02.2018 21:00:00 3,2 2,7 3,2 7 4 14 8 ZO 1017,2 4,6 0,0
19.02.2018 20:00:00 3,2 2,4 3,2 7 4 14 8 ZZO 1017,2 6 0,0

tt = temperatuur
td = dauwpunt
tt 5cm = temperatuur 5cm
ff = windsnelheid
fx = windstoten
dd = windrichting
ppp = luchtdruk
vv = zicht
rr = neerslag

Weerstations in de omgeving